Location: Gälforsberget
(66.6500°N, 22.4167°E)
Time: 15:04:37
(UTC+00:00)

Cosmos 1743 - Pass Details

Date: 11 April 2026
Orbit: 372 x 379 km, 82.5° (Epoch: 16 May)

Event Time Altitude Azimuth Distance (km) Brightness Sun altitude
Rises 21:16:54 0° 342° (NNW) 2,286 8.0 -13.6°
Reaches altitude 10° 21:19:09 10° 357° (N) 1,422 6.2 -13.6°
Maximum altitude 21:21:46 25° 55° (NE) 837 3.9 -13.7°
Enters shadow 21:23:44 14° 105° (ESE) 1,204 4.3 -13.8°
